Location: Ash Observatory
(39.7321°N, 75.2004°W)
Time: 02:54:28
(UTC-04:00)

Envisat - Pass Details

Date: 31 March 2019
Orbit: 764 x 766 km, 98.1° (Epoch: 13 October)

Event Time Altitude Azimuth Distance (km) Brightness Sun altitude
Rises 20:42:22 0° 203° (SSW) 3,215 6.3 -15.5°
Reaches altitude 10° 20:45:13 10° 219° (SW) 2,295 5.7 -16.0°
Maximum altitude 20:48:57 20° 267° (W) 1,693 5.6 -16.7°
Drops below altitude 10° 20:52:41 10° 315° (NW) 2,308 6.5 -17.4°
Sets 20:55:35 0° 331° (NNW) 3,240 7.1 -17.9°
